GW4434 Weather Reports


Display with metric or nautical units.
time (UTC)temp
F
wind
direction
speed
MPH
gust
MPH
rain 1hr
in
rain 24hr
in
rain mn
in
humidity
%
barometer
mb
20260506160700 74 188 0.0 1.0 0.00 0.00 0.00 61 1017.6
20260506160156 74 187 0.0 2.0 0.00 0.00 0.00 61 1017.7
20260506155655 74 181 0.0 0.0 0.00 0.00 0.00 60 1017.4
20260506155151 74 202 1.0 2.0 0.00 0.00 0.00 60 1017.4
20260506153253 75 214 0.0 1.0 0.00 0.00 0.00 62 1017.3
20260506152750 75 194 0.0 1.0 0.00 0.00 0.00 59 1017.3
20260506152248 75 187 0.0 1.0 0.00 0.00 0.00 60 1017.4
20260506151747 74 201 1.0 1.0 0.00 0.00 0.00 60 1017.3
20260506151243 75 254 2.0 2.0 0.00 0.00 0.00 60 1017.3
20260506150739 74 210 1.0 1.0 0.00 0.00 0.00 59 1017.1
20260506150237 74 203 1.0 1.0 0.00 0.00 0.00 60 1017.0
20260506145734 73 182 0.0 1.0 0.00 0.00 0.00 61 1016.9
20260506145230 73 190 0.0 1.0 0.00 0.00 0.00 63 1016.9
20260506144727 72 187 0.0 0.0 0.00 0.00 0.00 63 1017.0
20260506144224 72 187 0.0 0.0 0.00 0.00 0.00 63 1017.0
20260506143722 71 178 0.0 0.0 0.00 0.00 0.00 63 1016.9
20260506143219 71 200 1.0 1.0 0.00 0.00 0.00 63 1017.1
20260506142718 71 190 1.0 1.0 0.00 0.00 0.00 64 1016.8
20260506142215 70 189 0.0 0.0 0.00 0.00 0.00 64 1017.1
20260506141713 69 189 0.0 0.0 0.00 0.00 0.00 65 1017.2
20260506141211 69 188 0.0 1.0 0.00 0.00 0.00 66 1017.1
20260506140709 69 188 0.0 0.0 0.00 0.00 0.00 66 1017.0
20260506140205 69 191 0.0 0.0 0.00 0.00 0.00 66 1017.2
20260506135702 68 179 0.0 0.0 0.00 0.00 0.00 67 1017.1
20260506135158 68 197 0.0 0.0 0.00 0.00 0.00 67 1017.1
20260506134655 68 197 0.0 0.0 0.00 0.00 0.00 68 1017.2
20260506134151 68 188 0.0 0.0 0.00 0.00 0.00 68 1017.1
20260506133648 68 180 0.0 0.0 0.00 0.00 0.00 67 1017.2
20260506133145 68 200 0.0 1.0 0.00 0.00 0.00 67 1017.1
20260506132643 68 174 0.0 0.0 0.00 0.00 0.00 67 1017.2
20260506132139 68 185 0.0 1.0 0.00 0.00 0.00 67 1017.1
20260506131637 68 196 0.0 1.0 0.00 0.00 0.00 66 1017.1
20260506131133 68 196 0.0 1.0 0.00 0.00 0.00 66 1016.9
20260506130630 68 196 0.0 0.0 0.00 0.00 0.00 66 1016.9
20260506130127 67 192 0.0 0.0 0.00 0.00 0.00 67 1016.9
20260506125626 67 185 0.0 0.0 0.00 0.00 0.00 67 1017.1
20260506125123 67 188 0.0 0.0 0.00 0.00 0.00 66 1017.1
20260506124621 67 188 0.0 1.0 0.00 0.00 0.00 67 1017.0
20260506124118 67 188 0.0 0.0 0.00 0.00 0.00 68 1017.1
20260506123616 67 195 0.0 1.0 0.00 0.00 0.00 66 1017.4
20260506123114 67 184 0.0 0.0 0.00 0.00 0.00 67 1017.1
20260506122610 66 185 0.0 0.0 0.00 0.00 0.00 67 1017.1
20260506122108 66 207 0.0 0.0 0.00 0.00 0.00 67 1017.0
20260506121606 66 142 0.0 1.0 0.00 0.00 0.00 67 1017.0
20260506121102 66 199 0.0 1.0 0.00 0.00 0.00 68 1016.8
20260506120600 66 181 0.0 0.0 0.00 0.00 0.00 69 1016.9
20260506120057 65 184 0.0 1.0 0.00 0.00 0.00 69 1016.8
20260506115555 65 190 0.0 0.0 0.00 0.00 0.00 70 1016.7
20260506115053 65 186 0.0 0.0 0.00 0.00 0.00 70 1016.6
20260506114550 65 185 0.0 0.0 0.00 0.00 0.00 69 1016.7
20260506114048 64 155 0.0 0.0 0.00 0.00 0.00 71 1016.5
20260506113546 64 191 0.0 0.0 0.00 0.00 0.00 70 1016.6
20260506113043 64 190 0.0 0.0 0.00 0.00 0.00 70 1016.4
20260506112540 64 183 0.0 0.0 0.00 0.00 0.00 70 1016.1
20260506112037 64 188 0.0 0.0 0.00 0.00 0.00 71 1016.1
20260506111535 63 169 0.0 0.0 0.00 0.00 0.00 71 1016.1
20260506111032 63 180 0.0 0.0 0.00 0.00 0.00 71 1015.9
20260506110530 63 147 0.0 0.0 0.00 0.00 0.00 71 1015.9
20260506110027 63 151 0.0 1.0 0.00 0.00 0.00 71 1015.8
20260506105522 63 155 0.0 0.0 0.00 0.00 0.00 71 1015.6
20260506105020 62 154 0.0 0.0 0.00 0.00 0.00 71 1015.8
20260506104518 62 168 0.0 0.0 0.00 0.00 0.00 72 1015.6
20260506104016 62 175 0.0 0.0 0.00 0.00 0.00 72 1015.7
20260506103513 62 161 0.0 0.0 0.00 0.00 0.00 71 1015.8
20260506103009 62 160 0.0 0.0 0.00 0.00 0.00 71 1015.8
20260506102508 62 184 0.0 1.0 0.00 0.00 0.00 71 1015.6
20260506102005 62 337 1.0 1.0 0.00 0.00 0.00 71 1015.6
20260506101501 62 151 0.0 0.0 0.00 0.00 0.00 71 1015.5
20260506100958 63 151 0.0 0.0 0.00 0.00 0.00 70 1015.6
20260506100457 63 151 0.0 0.0 0.00 0.00 0.00 70 1015.7
20260506095954 63 151 0.0 0.0 0.00 0.00 0.00 70 1015.8
20260506095453 63 156 0.0 1.0 0.00 0.00 0.00 70 1015.7
20260506094948 63 157 0.0 1.0 0.00 0.00 0.00 70 1015.7
20260506094447 63 169 0.0 0.0 0.00 0.00 0.00 69 1015.7
20260506093944 63 158 0.0 0.0 0.00 0.00 0.00 69 1015.5
20260506093442 63 158 0.0 0.0 0.00 0.00 0.00 69 1015.9
20260506092940 63 169 0.0 1.0 0.00 0.00 0.00 69 1015.8
20260506092437 63 161 0.0 0.0 0.00 0.00 0.00 68 1015.9
20260506091934 64 152 0.0 0.0 0.00 0.00 0.00 68 1016.0
20260506091432 64 155 0.0 0.0 0.00 0.00 0.00 68 1015.9
20260506090929 64 155 0.0 0.0 0.00 0.00 0.00 67 1016.0
20260506090427 64 154 0.0 0.0 0.00 0.00 0.00 67 1016.3
20260506085923 64 159 0.0 0.0 0.00 0.00 0.00 67 1016.3
20260506085420 64 159 0.0 0.0 0.00 0.00 0.00 66 1016.3
20260506084916 64 159 0.0 0.0 0.00 0.00 0.00 66 1016.4
20260506084413 64 182 0.0 0.0 0.00 0.00 0.00 66 1016.2
20260506083909 64 153 0.0 0.0 0.00 0.00 0.00 66 1016.3
20260506083407 64 154 0.0 0.0 0.00 0.00 0.00 67 1016.3
20260506082904 64 153 0.0 0.0 0.00 0.00 0.00 67 1016.2
20260506082401 64 173 0.0 0.0 0.00 0.00 0.00 68 1016.2
20260506081856 64 190 0.0 0.0 0.00 0.00 0.00 68 1016.3
20260506081355 64 191 0.0 0.0 0.00 0.00 0.00 68 1016.6
20260506080852 64 191 0.0 0.0 0.00 0.00 0.00 67 1016.6
20260506080349 64 191 0.0 0.0 0.00 0.00 0.00 68 1016.5
20260506073333 63 190 0.0 0.0 0.00 0.00 0.00 68 1016.4
20260506072830 63 190 0.0 0.0 0.00 0.00 0.00 68 1016.6
20260506072327 63 190 0.0 0.0 0.00 0.00 0.00 68 1016.6
20260506071825 63 190 0.0 0.0 0.00 0.00 0.00 68 1016.6
20260506071323 63 190 0.0 0.0 0.00 0.00 0.00 67 1016.6
20260506070820 64 190 0.0 0.0 0.00 0.00 0.00 67 1016.5
20260506070316 64 190 0.0 0.0 0.00 0.00 0.00 67 1016.5
20260506062253 65 189 0.0 0.0 0.00 0.00 0.00 64 1016.5
20260506061749 65 189 0.0 0.0 0.00 0.00 0.00 63 1016.6
20260506061247 65 189 0.0 0.0 0.00 0.00 0.00 63 1016.9
20260506060745 66 189 0.0 0.0 0.00 0.00 0.00 62 1017.0
20260506060242 66 188 0.0 0.0 0.00 0.00 0.00 62 1016.8
20260506051208 66 163 0.0 0.0 0.00 0.00 0.00 60 1017.1
20260506050706 66 163 0.0 0.0 0.00 0.00 0.00 59 1017.0
20260506050203 67 167 0.0 0.0 0.00 0.00 0.00 59 1016.9
20260506044654 67 155 0.0 0.0 0.00 0.00 0.00 57 1016.8
20260506044151 68 157 0.0 0.0 0.00 0.00 0.00 56 1016.6
20260506043648 68 195 0.0 0.0 0.00 0.00 0.00 56 1016.8
20260506043146 68 161 0.0 0.0 0.00 0.00 0.00 56 1016.9
20260506042645 68 157 0.0 1.0 0.00 0.00 0.00 55 1016.9
20260506042142 68 157 0.0 0.0 0.00 0.00 0.00 55 1016.9
20260506041641 68 163 0.0 1.0 0.00 0.00 0.00 55 1017.0
20260506041137 68 164 0.0 1.0 0.00 0.00 0.00 55 1016.7
20260506040635 69 181 0.0 2.0 0.00 0.00 0.00 55 1016.7
20260506040132 69 157 0.0 1.0 0.00 0.00 0.00 54 1016.6
20260506035629 69 153 1.0 1.0 0.00 0.00 0.00 54 1016.6
20260506035125 69 165 0.0 1.0 0.00 0.00 0.00 55 1016.7
20260506034622 69 173 0.0 1.0 0.00 0.00 0.00 55 1016.6
20260506034119 69 157 0.0 1.0 0.00 0.00 0.00 55 1016.8
20260506033616 69 102 0.0 1.0 0.00 0.00 0.00 55 1016.8
20260506033113 69 155 0.0 0.0 0.00 0.00 0.00 56 1016.8
20260506032611 69 157 0.0 0.0 0.00 0.00 0.00 56 1016.6
20260506032108 69 157 0.0 0.0 0.00 0.00 0.00 55 1017.0
20260506031605 69 167 0.0 0.0 0.00 0.00 0.00 55 1016.7
20260506031101 69 182 0.0 0.0 0.00 0.00 0.00 55 1016.6
20260506030600 70 153 0.0 0.0 0.00 0.00 0.00 55 1016.8
20260506030057 70 167 0.0 0.0 0.00 0.00 0.00 53 1016.3
20260506025554 70 174 0.0 1.0 0.00 0.00 0.00 53 1016.3
20260506025050 70 161 0.0 1.0 0.00 0.00 0.00 52 1016.2
20260506024547 70 163 0.0 0.0 0.00 0.00 0.00 51 1016.3
20260506024043 70 160 0.0 1.0 0.00 0.00 0.00 50 1016.1
20260506023539 70 184 0.0 1.0 0.00 0.00 0.00 49 1016.3
20260506023037 70 183 0.0 0.0 0.00 0.00 0.00 49 1016.3
20260506022534 70 183 0.0 0.0 0.00 0.00 0.00 49 1016.3
20260506022032 69 184 0.0 0.0 0.00 0.00 0.00 49 1016.3
20260506021529 70 183 0.0 0.0 0.00 0.00 0.00 50 1016.3
20260506021026 70 183 0.0 0.0 0.00 0.00 0.00 47 1016.5
20260506020524 70 183 0.0 0.0 0.00 0.00 0.00 47 1016.2
20260506020021 69 183 0.0 0.0 0.00 0.00 0.00 47 1016.2
20260506015518 69 183 0.0 0.0 0.00 0.00 0.00 49 1016.4
20260506015015 69 184 0.0 0.0 0.00 0.00 0.00 51 1016.2
20260506014513 68 184 0.0 0.0 0.00 0.00 0.00 52 1016.3
20260506014009 68 184 0.0 0.0 0.00 0.00 0.00 53 1016.3
20260506013507 68 184 0.0 0.0 0.00 0.00 0.00 53 1016.2
20260506013003 68 184 0.0 0.0 0.00 0.00 0.00 55 1016.3
20260506012459 68 184 0.0 0.0 0.00 0.00 0.00 50 1016.1
20260506011956 68 184 0.0 0.0 0.00 0.00 0.00 52 1016.2
20260506011453 68 184 0.0 0.0 0.00 0.00 0.00 51 1016.3
20260506010950 69 184 0.0 0.0 0.00 0.00 0.00 50 1016.3
20260506010449 69 183 0.0 0.0 0.00 0.00 0.00 51 1016.0
20260506005945 69 183 0.0 0.0 0.00 0.00 0.00 50 1015.9
20260506005443 70 183 0.0 0.0 0.00 0.00 0.00 51 1016.1
20260506004937 70 183 0.0 0.0 0.00 0.00 0.00 47 1015.8
20260506004436 71 183 0.0 0.0 0.00 0.00 0.00 47 1015.8
20260506003932 71 183 0.0 0.0 0.00 0.00 0.00 47 1015.7
20260506003428 72 183 0.0 0.0 0.00 0.00 0.00 44 1015.4
20260506002925 72 183 0.0 0.0 0.00 0.00 0.00 42 1015.4
20260506002421 73 183 0.0 0.0 0.00 0.00 0.00 40 1015.5
20260506001916 73 183 0.0 0.0 0.00 0.00 0.00 39 1015.4
20260506001414 74 183 0.0 0.0 0.00 0.00 0.00 38 1015.2
20260506000911 74 183 0.0 0.0 0.00 0.00 0.00 37 1015.3
20260506000409 75 183 0.0 0.0 0.00 0.00 0.00 36 1015.3
20260505235905 75 183 0.0 0.0 0.00 0.00 0.00 36 1015.3
20260505235403 75 183 0.0 0.0 0.00 0.00 0.00 36 1015.4
20260505234900 76 183 0.0 0.0 0.00 0.00 0.00 35 1015.3
20260505234357 76 183 0.0 0.0 0.00 0.00 0.00 35 1015.4
20260505233854 76 183 0.0 0.0 0.00 0.00 0.00 35 1015.4
20260505233352 77 183 0.0 0.0 0.00 0.00 0.00 36 1015.5
20260505232849 77 183 0.0 0.0 0.00 0.00 0.00 38 1015.4
20260505232347 77 172 0.0 0.0 0.00 0.00 0.00 37 1015.2
20260505231843 77 166 0.0 0.0 0.00 0.00 0.00 37 1015.3
20260505231341 77 186 0.0 0.0 0.00 0.00 0.00 39 1015.3
20260505230839 78 185 0.0 0.0 0.00 0.00 0.00 36 1015.4
20260505230336 78 181 0.0 0.0 0.00 0.00 0.00 36 1015.4
20260505225832 78 164 0.0 0.0 0.00 0.00 0.00 34 1015.4
20260505225330 78 178 0.0 0.0 0.00 0.00 0.00 37 1015.6
20260505224825 79 194 0.0 0.0 0.00 0.00 0.00 33 1015.7
20260505224323 79 194 0.0 1.0 0.00 0.00 0.00 33 1015.8
20260505223820 80 184 0.0 1.0 0.00 0.00 0.00 31 1015.7
20260505223317 80 188 0.0 0.0 0.00 0.00 0.00 32 1015.6
20260505222812 80 189 0.0 1.0 0.00 0.00 0.00 33 1015.7
20260505222309 81 188 0.0 0.0 0.00 0.00 0.00 31 1015.5
20260505221806 81 206 1.0 1.0 0.00 0.00 0.00 29 1015.4
20260505221302 82 154 0.0 2.0 0.00 0.00 0.00 27 1015.3
20260505220759 81 177 0.0 0.0 0.00 0.00 0.00 31 1015.6
20260505220257 82 186 0.0 2.0 0.00 0.00 0.00 28 1015.5
20260505215755 82 185 0.0 2.0 0.00 0.00 0.00 30 1015.5
20260505215252 81 202 1.0 2.0 0.00 0.00 0.00 30 1015.4
20260505214750 81 187 0.0 1.0 0.00 0.00 0.00 29 1015.4
20260505214247 81 184 0.0 0.0 0.00 0.00 0.00 31 1015.5
20260505213744 80 196 0.0 1.0 0.00 0.00 0.00 31 1015.5
20260505213242 81 183 0.0 0.0 0.00 0.00 0.00 30 1015.7
20260505212737 81 186 0.0 1.0 0.00 0.00 0.00 29 1015.7
20260505212235 82 220 1.0 2.0 0.00 0.00 0.00 27 1015.6
20260505211732 82 180 0.0 1.0 0.00 0.00 0.00 27 1015.7
20260505211229 82 169 0.0 2.0 0.00 0.00 0.00 30 1015.8
20260505210725 82 208 1.0 2.0 0.00 0.00 0.00 27 1015.9
20260505210222 82 249 2.0 3.0 0.00 0.00 0.00 27 1015.8
20260505205720 82 189 1.0 2.0 0.00 0.00 0.00 30 1015.8
20260505205218 82 179 0.0 2.0 0.00 0.00 0.00 28 1015.7
20260505204714 82 187 1.0 2.0 0.00 0.00 0.00 28 1016.0
20260505204212 82 180 0.0 1.0 0.00 0.00 0.00 28 1015.9
20260505203709 82 227 1.0 1.0 0.00 0.00 0.00 27 1015.9
20260505203206 81 198 1.0 2.0 0.00 0.00 0.00 29 1016.0
20260505202701 81 148 0.0 1.0 0.00 0.00 0.00 28 1016.1
20260505202158 82 163 1.0 2.0 0.00 0.00 0.00 27 1016.2
20260505201654 82 191 1.0 2.0 0.00 0.00 0.00 27 1016.2
20260505201152 84 188 0.0 1.0 0.00 0.00 0.00 25 1016.1
20260505200650 83 191 1.0 1.0 0.00 0.00 0.00 25 1016.4
20260505200147 83 179 0.0 1.0 0.00 0.00 0.00 26 1016.6
20260505195642 83 199 1.0 2.0 0.00 0.00 0.00 26 1016.3
20260505195140 83 205 1.0 2.0 0.00 0.00 0.00 24 1016.5
20260505194637 84 197 1.0 1.0 0.00 0.00 0.00 25 1016.5
20260505194133 83 170 0.0 1.0 0.00 0.00 0.00 25 1016.6
20260505193630 82 179 0.0 2.0 0.00 0.00 0.00 25 1016.8
20260505193127 81 188 0.0 1.0 0.00 0.00 0.00 29 1016.9
20260505192626 81 241 2.0 3.0 0.00 0.00 0.00 25 1016.9
20260505192123 82 183 1.0 1.0 0.00 0.00 0.00 26 1017.0
20260505191621 83 188 1.0 2.0 0.00 0.00 0.00 28 1016.8
20260505191119 82 180 0.0 2.0 0.00 0.00 0.00 29 1016.9
20260505190614 82 184 0.0 1.0 0.00 0.00 0.00 28 1017.0
20260505190109 83 232 1.0 2.0 0.00 0.00 0.00 26 1017.2
20260505185607 85 212 1.0 1.0 0.00 0.00 0.00 24 1017.2
20260505185103 85 172 0.0 0.0 0.00 0.00 0.00 27 1017.1
20260505184559 85 227 1.0 1.0 0.00 0.00 0.00 26 1017.4
20260505184056 83 190 1.0 2.0 0.00 0.00 0.00 26 1017.5
20260505183553 84 258 1.0 2.0 0.00 0.00 0.00 24 1017.7
20260505183051 84 255 1.0 2.0 0.00 0.00 0.00 24 1017.8
20260505182547 84 190 0.0 2.0 0.00 0.00 0.00 23 1017.9
20260505182043 83 160 1.0 1.0 0.00 0.00 0.00 26 1017.8
20260505181540 82 221 1.0 2.0 0.00 0.00 0.00 27 1018.0
20260505181032 84 292 2.0 2.0 0.00 0.00 0.00 25 1017.9
20260505180527 83 177 2.0 3.0 0.00 0.00 0.00 27 1018.0
20260505180026 83 266 2.0 3.0 0.00 0.00 0.00 29 1018.2
20260505175525 82 182 1.0 2.0 0.00 0.00 0.00 29 1017.9
20260505175023 80 220 1.0 2.0 0.00 0.00 0.00 29 1018.1
20260505174520 83 252 2.0 2.0 0.00 0.00 0.00 27 1017.9
20260505174016 83 255 1.0 2.0 0.00 0.00 0.00 27 1017.8
20260505173513 83 163 0.0 2.0 0.00 0.00 0.00 27 1018.0
20260505173009 84 205 1.0 2.0 0.00 0.00 0.00 28 1017.8
20260505172508 83 166 0.0 1.0 0.00 0.00 0.00 29 1017.9
20260505172008 83 193 1.0 3.0 0.00 0.00 0.00 27 1018.1
20260505171504 83 193 0.0 1.0 0.00 0.00 0.00 27 1018.1
20260505171001 82 199 0.0 1.0 0.00 0.00 0.00 27 1018.2
20260505170458 82 206 1.0 1.0 0.00 0.00 0.00 28 1018.3
20260505165953 81 196 1.0 1.0 0.00 0.00 0.00 30 1018.4
20260505165444 81 184 0.0 2.0 0.00 0.00 0.00 29 1018.2
20260505164939 80 199 0.0 2.0 0.00 0.00 0.00 28 1018.3
20260505164431 80 213 2.0 2.0 0.00 0.00 0.00 30 1018.6
20260505163929 81 272 2.0 3.0 0.00 0.00 0.00 29 1018.8
20260505163427 82 236 2.0 2.0 0.00 0.00 0.00 29 1018.9
20260505162926 81 246 1.0 2.0 0.00 0.00 0.00 27 1018.9
20260505162421 81 261 2.0 2.0 0.00 0.00 0.00 24 1018.5
20260505161918 81 216 1.0 2.0 0.00 0.00 0.00 27 1018.8
20260505161415 80 159 1.0 2.0 0.00 0.00 0.00 34 1018.8